Regional Weather Roundup
Issued by NWS Upton, NY

Current Version | Previous Version | Text Only | Print | Product List | Glossary On
Versions: 1 2 3 4 5 6 7 8 9 10 11 12 13 14 15 16 17 18 19 20 21 22 23 24 25 26 27 28 29 30 31 32 33 34 35 36 37 38 39 40 41 42 43 44 45 46 47 48 49 50
000
ASUS41 KOKX 210905
RWROKX

REGIONAL WEATHER ROUNDUP
NATIONAL WEATHER SERVICE NEW YORK NY
400 AM EST FRI NOV 21 2014

NOTE: "FAIR" INDICATES FEW OR NO CLOUDS BELOW 12,000 FEET WITH NO
SIGNIFICANT WEATHER AND/OR OBSTRUCTIONS TO VISIBILITY.

NYZ071-072-176-178-NJZ106-104-211000-
NEW YORK CITY METRO AREA


CITY           SKY/WX    TMP DP  RH WIND       PRES   REMARKS
CENTRAL PARK   CLEAR     29   8  41 VRB6G16   30.11R WCI  23
LAGUARDIA APRT CLEAR     30  10  43 W16G28    30.10R WCI  19
KENNEDY INTL   CLEAR     30   7  37 NW20G33   30.11R WCI  17
NEWARK/LIBERTY CLEAR     27   9  47 W10       30.11R WCI  17
BRNX BOT. GARD   N/A    N/A N/A N/A W13       30.10R
TETERBORO      CLEAR     28   8  43 W7        30.10R WCI  21
$$

NYZ177-179-078>081-211000-
LONG ISLAND NEW YORK

CITY           SKY/WX    TMP DP  RH WIND       PRES   REMARKS
FARMINGDALE    CLEAR     29   8  41 NW13G20   30.09R WCI  19
ISLIP          CLEAR     29   9  43 W14       30.06R WCI  18
SHIRLEY        CLEAR     29  10  45 NW10G24   30.07R WCI  20
WESTHAMPTON    CLEAR     29  10  45 W9        30.06R WCI  20
MONTAUK POINT    N/A     33  13  43 W13G23    30.02R WCI  24
$$

NYZ052-065-067-211000-
HUDSON VALLEY

CITY           SKY/WX    TMP DP  RH WIND       PRES   REMARKS
WHITE PLAINS   CLEAR     27   8  44 NW15G23   30.05R WCI  15
NEWBURGH       CLEAR     23  12  63 W17       30.05R WCI   9
MONTGOMERY     CLEAR     24   7  48 SW5       30.06R WCI  18
POUGHKEEPSIE   CLEAR     26   9  48 W9        30.06R WCI  17
ALBANY         PTCLDY    20  11  68 SW5       30.02R WCI  13
$$

NJZ001-105-106-008-010-013-015-019>022-104-211000-
NEW JERSEY

CITY           SKY/WX    TMP DP  RH WIND       PRES   REMARKS
NEWARK/LIBERTY CLEAR     27   9  47 W10       30.11R WCI  17
TETERBORO      CLEAR     28   8  43 W7        30.10R WCI  21
CALDWELL       CLEAR     27   7  42 W10G17    30.11R WCI  17
MORRISTOWN       N/A    N/A N/A N/A MISG        N/A
SOMERVILLE     CLEAR     27   8  44 VRB6      30.11R WCI  20
SUSSEX         CLEAR     24   8  50 VRB6      30.07R WCI  17
ANDOVER          N/A     24   8  50 VRB3      30.09R
TRENTON        CLEAR     27   7  42 W6        30.14R WCI  20
MILLVILLE      CLEAR     30   9  41 W12       30.17R WCI  20
ATLANTIC CITY  CLEAR     29  10  45 NW13      30.16R WCI  19
WRIGHTSTOWN    CLEAR     28   8  42 NW10      30.12R WCI  18
TOMS RIVER     CLEAR     28   7  40 NW5       30.14R WCI  23
BELMAR         CLEAR     28   7  40 W9        30.12R WCI  20
$$

PAZ047>061-062-071-211000-
EASTERN PENNSYLVANIA

CITY           SKY/WX    TMP DP  RH WIND       PRES   REMARKS
PHILADELPHIA   FAIR      31   6  35 W17       30.18R WCI  19
ALLENTOWN      CLEAR     26   8  46 W10       30.13R WCI  16
SCRANTON       PTCLDY    20   8  60 W5        30.08R WCI  13
$$

CTZ002-004>006-009-010-012-RIZ004-006-007-MAZ004-011-015-211000-
SOUTHERN NEW ENGLAND
 IN CT

CITY           SKY/WX    TMP DP  RH WIND       PRES   REMARKS
BRADLEY INTL   CLEAR     27  13  55 W10       29.99R WCI  17
HARTFORD       CLEAR     27   9  46 W9        30.02R WCI  18
DANBURY        CLEAR     26   6  42 VRB7      30.05R WCI  18
WTRBRY/OXFORD  CLEAR     25   5  42 W8        30.01R WCI  16
BRIDGEPORT     CLEAR     29   8  41 NW17G23   30.05R WCI  17
MERIDEN        CLEAR     27   7  42 NW8       30.04R WCI  19
NEW HAVEN      CLEAR     32  10  40 NW12G21   30.04R WCI  23
CHESTER        FAIR      28   9  43 NW8G16    30.01R WCI  20
GROTON         CLEAR     28  11  48 NW12      30.02R WCI  18
WILLIMANTIC    CLEAR     24  18  77 SW5       30.01R WCI  18

 IN RI

CITY           SKY/WX    TMP DP  RH WIND       PRES   REMARKS
PROVIDENCE     CLEAR     28  15  58 W8        30.00R WCI  20
BLOCK ISLAND   PTCLDY    32  12  43 NW9G17    29.99R WCI  24
WESTERLY       CLEAR     28  19  69 W3        30.01R

 IN MA

CITY           SKY/WX    TMP DP  RH WIND       PRES   REMARKS
BOSTON         CLEAR     29  13  51 W15G23    29.97R WCI  18
WORCESTER      CLEAR     23  11  60 W13       29.93R WCI  11
WESTFIELD      CLEAR     26   9  48 W7        29.99R WCI  18
PROVINCETOWN   MOCLDY    34  18  51 NW22G29   29.95R WCI  22
NANTUCKET      CLEAR     34  14  43 NW17G29   29.96R WCI  23
$$

ANZ330-335-338-340-345-350-353-355-211000-
COASTAL MARINE OBSERVATIONS


STATION/POSITION TIME  SKY/WX   TEMP    WIND        PRES    VSBY  WAVE
                                AIR SEA DIR/SP/G                  HT/PER
                 (UTC)          (F)     (DEG/KT/KT) (MB)    (MI)  (FT/S)
NY HARB ENTRANCE 0800            34 57  290/ 23/ 29 1018.5          4/ 5
4S FIRE IS       0900               53                N/A           5/ 8
20S FIRE ISLAND  0900            34 54  310/ 25/ 33 1018.0          7/ 6
23SW MTP         0900                                 N/A           6/ 8
HUDSON CANYON    0900            37 59  310/ 23/ 33 1017.3
EXECUTION ROCKS  0900            32 48  290/ 17/ 25   N/A
WESTERN LI SOUND 0900            31     280/ 17/ 23   N/A           2/ 3
CENTRAL LI SOUND 0900            33 52  280/ 21/ 27   N/A           4/ 4
EASTERN LI SOUND 0800            34 53  290/ 17/ 23   N/A
ROBBINS REEF     0900            29     290/ 17/ 21 1018.3
$$


>>>>>>>>>>>>>>>>>>>>>>>>>>>> KEY <<<<<<<<<<<<<<<<<<<<<<<<<<<
>                                                          <
>     SKY/WX - SKY CONDITION/PRESENT WEATHER               <
>     TMP    - TEMPERATURE IN FAHRENHEIT                   <
>     DP     - DEWPOINT IN FAHRENHEIT                      <
>     RH     - RELATIVE HUMIDITY IN PERCENT                <
>     WIND   - DIRECTION AND SPEED IN MPH                  <
>     PRES   - MEAN SEA LEVEL PRESSURE IN INCHES OF HG     <
>     WCI    - WIND CHILL INDEX                            <
>     VSB    - VISIBILITY IN MILES                         <
>     HX     - HEAT INDEX                                  <
>     TC     - TEMPERATURE IN CELSIUS                      <
>     VRB    - VARIABLE WIND DIRECTION                     <
>                                                          <
>>>>>>>>>>>>>>>>>>>>>>>>>>>> KEY <<<<<<<<<<<<<<<<<<<<<<<<<<<




USA.gov is the U.S. government's official web portal to all federal, state and local government web resources and services.